This is the latest recevied weather packets stored in our database for station/object KD7CIH. If no packets are shown the sender has not sent any weather packets the latest 10 day(s).
| Time | Temp. | Humidity | Pressure | Rain* | Wind** | Luminosity | Snow |
|---|---|---|---|---|---|---|---|
| 1777041307 | 7.22° C | 43% | 1003.5 hPa | 0 mm | - | - | - |
| 1777041008 | 6.67° C | 44% | 1003.4 hPa | 0 mm | - | - | - |
| 1777040709 | 6.67° C | 44% | 1003.5 hPa | 0 mm | - | - | - |
| 1777040407 | 6.11° C | 45% | 1003.4 hPa | 0 mm | - | - | - |
| 1777040107 | 6.11° C | 45% | 1003.5 hPa | 0 mm | - | - | - |
| 1777039806 | 6.11° C | 46% | 1003.4 hPa | 0 mm | - | - | - |
| 1777039633 | 5.56° C | 46% | 1003.5 hPa | 0 mm | - | - | - |
| 1777039208 | 5.56° C | 46% | 1003.5 hPa | 0 mm | - | - | - |
| 1777038906 | 5.56° C | 47% | 1003.6 hPa | 0 mm | - | - | - |
| 1777038607 | 5.56° C | 47% | 1003.6 hPa | 0 mm | - | - | - |
| 1777038306 | 5° C | 47% | 1003.6 hPa | 0 mm | - | - | - |
| 1777038134 | 5° C | 47% | 1003.6 hPa | 0 mm | - | - | - |
| 1777037708 | 5° C | 47% | 1003.6 hPa | 0 mm | - | - | - |
| 1777037405 | 5° C | 47% | 1003.6 hPa | 0 mm | - | - | - |
| 1777037105 | 4.44° C | 47% | 1003.7 hPa | 0 mm | - | - | - |
| 1777036800 | 4.44° C | 48% | 1003.7 hPa | 0 mm | - | - | - |
| 1777036622 | 4.44° C | 48% | 1003.8 hPa | 0 mm | - | - | - |
| 1777036188 | 4.44° C | 48% | 1003.7 hPa | 0 mm | - | - | - |
| 1777035882 | 4.44° C | 49% | 1003.7 hPa | 0 mm | - | - | - |
| 1777035576 | 3.89° C | 49% | 1003.8 hPa | 0 mm | - | - | - |
| 1777035278 | 3.89° C | 49% | 1003.6 hPa | 0 mm | - | - | - |
| 1777035102 | 3.89° C | 50% | 1003.7 hPa | 0 mm | - | - | - |
| 1777034676 | 3.33° C | 50% | 1003.7 hPa | 0 mm | - | - | - |
| 1777034376 | 3.33° C | 51% | 1003.7 hPa | 0 mm | - | - | - |
| 1777034204 | 3.33° C | 51% | 1003.7 hPa | 0 mm | - | - | - |
* Rain latest hour (hover to see other rain measurements)
** Current wind speed in m/s (hover to see current wind gust speed)